Location: Celina Elementary School
(33.3262°N, 96.7767°W)
Time: 07:21:50
(UTC+00:00)

Cosmos 1570 Rocket - Pass Details

Date: 26 November 2021
Orbit: 763 x 788 km, 74.1° (Epoch: 19 January)

Event Time Altitude Azimuth Distance (km) Brightness Sun altitude
Rises 12:17:59 0° 345° (NNW) 3,232 6.9 -10.7°
Reaches altitude 10° 12:20:22 10° 347° (NNW) 2,304 6.2 -10.2°
Maximum altitude 12:25:36 74° 73° (ENE) 798 4.3 -9.2°
Drops below altitude 10° 12:30:49 10° 158° (SSE) 2,303 7.1 -8.1°
Sets 12:33:12 0° 160° (SSE) 3,230 7.9 -7.7°
